User: anonymous   Login
Location: Unspecified
(0.0000°N, 0.0000°E)
Time: 16:30:19
(UTC+00:00)
Language:

RS-15 - Orbit

View from above orbital plane
View from above orbital plane
View from above satellite
View from above satellite

Ground track
Ground track

The orbit data is extracted from the following two-line orbital elements,

1 23439U 94085A   17204.89983373 -.00000053 +00000-0 -29453-3 0  9997
2 23439 064.8146 159.7879 0166536 239.5178 152.6198 11.27566831929552
Epoch (UTC): 23 July 2017 21:35:45
Eccentricity: 0.0166536
inclination: 64.8146°
perigee height: 1882 km
apogee height: 2162 km
right ascension of ascending node: 159.7879°
argument of perigee: 239.5178°
revolutions per day: 11.27566831
mean anomaly at epoch: 152.6198°
orbit number at epoch: 92955

The dashed part of the orbit path shows where the satellite is in the earth's shadow,  

DLR